2019-038AD (44413 NORAD) Tracking and Keplerian Element Data

This shows tracking and keplerian element data for the satellite.

Feedback or suggestion? Click here.




ElementValue
Catalog44413
Name2019-038AD
Epoch Orbit429
Epoch Day214.89294424
Epoch Year2019
RAAN176.2869
Inclination97.4916
Eccentricity0.0024504
Argument of Perigee147.7691
Mean Anonmoly212.5043
Mean Motion15.11851868
Decay Rate7.06E-06
L11 44413U 19038AD 19214.89294424 .00000706 00000-0 44774-4 0 9999
L22 44413 97.4916 176.2869 0024504 147.7691 212.5043 15.11851868 4299

Live tracking and technical data element details for 2019-038AD (NORAD 44413). 2019-038AD can be tracked NOW for your location showing map with azimuth and elevation plus other details from your city location.

Track the satellite on the map from your city or location and see movement details for azimuth, elevation, latitude, longitude, range, height, and movement on the map or in text.







IsCatalogInMostPopularTable: catalog: 44413, numindb: 9
Update: records affected: 1



GetName: 44413 2019-038AD

Hit Count: updated at: Wed, 21 Aug 2019 12:07:34 GMT